FW7233 Weather Reports


time (UTC)temp
F
wind
direction
speed
knots
gust
knots
rain 1hr
in
rain 24hr
in
rain mn
in
humidity
%
barometer
mb
20260506155608 73 132 0.9 5.2 0.00 0.00 0.00 51 1006.1
20260506154608 74 135 2.6 6.1 0.00 0.00 0.00 48 1005.9
20260506153608 74 257 2.6 7.8 0.00 0.00 0.00 48 1006.0
20260506152607 74 214 4.3 6.1 0.00 0.00 0.00 49 1005.8
20260506151608 74 164 0.9 7.0 0.00 0.00 0.00 50 1006.0
20260506150607 74 134 3.5 7.8 0.00 0.00 0.00 48 1006.1
20260506145608 73 154 4.3 8.7 0.00 0.00 0.00 50 1005.9
20260506144610 73 253 3.5 7.0 0.00 0.00 0.00 51 1005.9
20260506143608 75 61 0.9 3.5 0.00 0.00 0.00 54 1006.0
20260506141608 74 200 3.5 7.0 0.00 0.00 0.00 55 1006.1
20260506134607 74 66 0.0 6.1 0.00 0.00 0.00 58 1006.0
20260506132607 72 121 1.7 5.2 0.00 0.00 0.00 57 1006.3
20260506131608 72 271 1.7 7.8 0.00 0.00 0.00 59 1006.0
20260506130609 72 140 0.0 7.0 0.00 0.00 0.00 59 1006.0
20260506125608 73 122 0.9 8.7 0.00 0.00 0.00 58 1006.3
20260506124608 74 136 7.8 11.3 0.00 0.00 0.00 56 1006.0
20260506123607 74 177 1.7 9.6 0.00 0.00 0.00 56 1006.0
20260506122608 73 248 3.5 7.0 0.00 0.00 0.00 58 1006.2
20260506121608 71 148 2.6 7.0 0.00 0.00 0.00 60 1006.2
20260506120614 73 270 5.2 6.1 0.00 0.00 0.00 59 1006.0
20260506115608 72 242 4.3 7.0 0.00 0.00 0.00 60 1006.1
20260506113607 72 139 2.6 6.1 0.00 0.00 0.00 62 1006.3
20260506112607 70 188 1.7 5.2 0.00 0.00 0.00 64 1006.4
20260506111607 71 221 0.9 6.1 0.00 0.00 0.00 64 1006.4
20260506110615 69 137 0.9 8.7 0.00 0.00 0.00 66 1006.1
20260506105610 70 149 3.5 6.1 0.00 0.00 0.00 64 1006.1
20260506104608 70 185 0.9 6.1 0.00 0.00 0.00 62 1006.2
20260506103607 71 169 0.9 7.8 0.00 0.00 0.00 61 1005.7
20260506102608 69 206 1.7 7.8 0.00 0.00 0.00 65 1005.9
20260506101608 69 138 0.0 7.8 0.00 0.00 0.00 65 1006.0
20260506100609 71 232 3.5 7.0 0.00 0.00 0.00 64 1006.0
20260506094611 70 234 3.5 8.7 0.00 0.00 0.00 63 1005.8
20260506093608 70 279 3.5 8.7 0.00 0.00 0.00 63 1005.5
20260506092608 71 105 0.9 7.8 0.00 0.00 0.00 63 1005.8
20260506091608 71 163 3.5 6.1 0.00 0.00 0.00 62 1005.4
20260506090607 72 201 1.7 12.2 0.00 0.00 0.00 62 1005.3
20260506085608 70 283 2.6 9.6 0.00 0.00 0.00 61 1005.5
20260506083608 70 38 1.7 7.0 0.00 0.00 0.00 64 1005.4
20260506082607 68 101 2.6 7.8 0.00 0.00 0.00 65 1005.6
20260506081608 68 141 1.7 13.0 0.00 0.00 0.00 68 1005.5
20260506080607 68 176 1.7 7.0 0.00 0.00 0.00 66 1005.4
20260506071607 66 221 1.7 7.8 0.00 0.00 0.00 69 1005.2
20260506070608 65 167 2.6 7.8 0.00 0.00 0.00 70 1005.0
20260506044608 53 159 4.3 5.2 0.00 0.00 0.00 99 1005.3
20260506043608 52 133 0.0 1.7 0.00 0.00 0.00 99 1005.5
20260506042608 51 141 0.0 0.0 0.00 0.00 0.00 99 1005.2
20260506041608 51 138 0.0 0.9 0.00 0.00 0.00 99 1005.3
20260506040608 50 136 0.0 0.9 0.00 0.00 0.00 99 1005.2
20260506034608 48 140 0.0 0.0 0.00 0.00 0.00 99 1005.5
20260506033607 48 131 0.0 0.0 0.00 0.00 0.00 99 1005.7
20260506032608 47 137 0.0 0.0 0.00 0.00 0.00 99 1005.8
20260506031608 48 141 0.0 0.0 0.00 0.00 0.00 99 1005.6
20260506030607 47 140 0.0 0.0 0.00 0.00 0.00 99 1005.8
20260506025608 48 140 0.0 0.0 0.00 0.00 0.00 99 1005.8
20260506024607 47 137 0.0 0.0 0.00 0.00 0.00 99 1005.8
20260506023608 48 133 0.0 0.0 0.00 0.00 0.00 99 1005.7
20260506022607 48 137 0.0 0.0 0.00 0.00 0.00 99 1005.8
20260506021607 48 140 0.0 0.0 0.00 0.00 0.00 99 1006.2
20260506020609 49 135 0.0 0.0 0.00 0.00 0.00 99 1006.2
20260506014608 49 141 0.0 0.9 0.00 0.00 0.00 99 1006.2
20260506013615 49 146 0.0 0.0 0.00 0.00 0.00 99 1006.2
20260506012608 49 141 0.0 0.0 0.00 0.00 0.00 99 1006.0
20260506011607 49 136 0.0 0.9 0.00 0.00 0.00 99 1006.3
20260506010607 49 157 0.9 0.9 0.00 0.00 0.00 99 1006.1
20260506005607 49 113 0.0 0.9 0.00 0.00 0.00 99 1006.0
20260506004608 49 139 0.0 0.0 0.00 0.00 0.00 99 1006.1
20260506002607 50 143 0.0 0.0 0.00 0.00 0.00 98 1006.4
20260506001608 50 137 0.0 0.0 0.00 0.00 0.00 98 1006.2
20260506000608 51 146 0.0 0.0 0.00 0.00 0.00 98 1006.5
20260505234607 51 149 0.0 0.0 0.00 0.00 0.00 97 1006.5
20260505232609 51 138 0.0 0.9 0.00 0.00 0.00 96 1006.5
20260505231608 52 138 0.0 0.0 0.00 0.00 0.00 96 1006.7
20260505230607 53 138 0.0 0.0 0.00 0.00 0.00 96 1006.7
20260505225608 53 147 0.0 0.0 0.00 0.00 0.00 95 1006.8
20260505224608 54 150 0.0 0.9 0.00 0.00 0.00 95 1006.8
20260505223608 54 138 0.0 0.0 0.00 0.00 0.00 95 1006.6
20260505222607 54 151 0.0 0.0 0.00 0.00 0.00 95 1006.8
20260505221608 55 132 0.0 0.9 0.00 0.00 0.00 94 1006.7
20260505220608 55 137 0.0 0.0 0.00 0.00 0.00 94 1006.8
20260505215608 56 137 0.0 0.9 0.00 0.00 0.00 93 1006.9
20260505214608 56 65 0.0 1.7 0.00 0.00 0.00 93 1006.9
20260505213608 56 140 0.0 0.9 0.00 0.00 0.00 93 1007.1
20260505212608 57 138 0.0 0.9 0.00 0.00 0.00 92 1006.9
20260505210609 58 127 0.0 0.0 0.00 0.00 0.00 90 1007.0
20260505205608 58 149 0.0 0.9 0.00 0.00 0.00 90 1007.0
20260505204608 59 142 0.0 1.7 0.00 0.00 0.00 89 1006.9
20260505203608 59 141 0.0 0.9 0.00 0.00 0.00 88 1007.1
20260505202608 60 123 0.9 1.7 0.00 0.00 0.00 87 1006.9
20260505200608 61 130 0.0 0.9 0.00 0.00 0.00 85 1007.1
20260505195608 62 97 0.0 1.7 0.00 0.00 0.00 84 1007.0
20260505194608 62 105 0.0 2.6 0.00 0.00 0.00 82 1006.9
20260505193608 62 139 0.0 1.7 0.00 0.00 0.00 83 1006.8
20260505192608 62 134 0.0 0.9 0.00 0.00 0.00 83 1006.9
20260505190609 64 115 0.0 0.9 0.00 0.00 0.00 80 1006.8
20260505185607 65 142 0.9 2.6 0.00 0.00 0.00 78 1006.7
20260505184609 65 107 0.0 1.7 0.00 0.00 0.00 77 1006.8
20260505183607 66 67 0.9 1.7 0.00 0.00 0.00 76 1006.2
20260505182608 66 141 0.0 1.7 0.00 0.00 0.00 74 1006.4
20260505181607 67 125 0.0 1.7 0.00 0.00 0.00 72 1006.1
20260505180607 69 41 0.0 2.6 0.00 0.00 0.00 67 1006.2
20260505175607 67 150 0.9 1.7 0.00 0.00 0.00 61 1006.0
20260505174608 67 152 0.0 0.0 0.00 0.00 0.00 51 1005.7
20260505173608 69 147 0.0 0.0 0.00 0.00 0.00 49 1006.0
20260505171607 73 142 0.0 0.9 0.00 0.00 0.00 41 1005.9
20260505170607 74 177 0.9 2.6 0.00 0.00 0.00 40 1005.8
20260505165608 75 180 0.0 1.7 0.00 0.00 0.00 39 1005.8
20260505164608 76 139 0.0 1.7 0.00 0.00 0.00 36 1005.9
20260505163608 78 149 0.0 2.6 0.00 0.00 0.00 33 1005.9
20260505162608 79 150 0.9 6.1 0.00 0.00 0.00 32 1006.1
20260505161607 79 97 2.6 5.2 0.00 0.00 0.00 30 1005.8
20260505160608 80 140 1.7 8.7 0.00 0.00 0.00 32 1005.9